Overview Statistics Trail Chart Weather Telemetry Raw packets
 

This is the latest recevied weather packets stored in our database for station/object N6ZHV-13. If no packets are shown the sender has not sent any weather packets the latest 10 day(s).

<< 46 47 48 49 50 51 52 >>
Time Temp. Humidity Pressure Rain* Wind** Luminosity Snow
1788376025 25° C 53% 1012.1 hPa 0 mm - - -
1788375725 25° C 53% 1012.2 hPa 0 mm - - -
1788375425 25° C 53% 1012.3 hPa 0 mm - - -
1788375125 24.44° C 55% 1012.4 hPa 0 mm - - -
1788374825 24.44° C 57% 1012.4 hPa 0 mm - - -
1788374525 24.44° C 57% 1012.5 hPa 0 mm - - -
1788374310 23.89° C 58% 1012.5 hPa 0 mm - - -
1788374225 23.89° C 58% 1012.5 hPa 0 mm - - -
1788373925 23.89° C 59% 1012.5 hPa 0 mm - - -
1788373625 23.89° C 58% 1012.5 hPa 0 mm - - -
1788373325 23.89° C 57% 1012.6 hPa 0 mm - - -
1788373025 23.33° C 60% 1012.6 hPa 0 mm - - -
1788372725 23.33° C 58% 1012.5 hPa 0 mm - - -
1788372442 23.89° C 61% 1012.6 hPa 0 mm - - -
1788372125 23.89° C 60% 1012.7 hPa 0 mm - - -
1788371825 23.33° C 59% 1012.7 hPa 0 mm - - -
1788371525 23.33° C 60% 1012.7 hPa 0 mm - - -
1788371225 23.33° C 61% 1012.7 hPa 0 mm - - -
1788370925 22.78° C 64% 1012.7 hPa 0 mm - - -
1788370625 22.22° C 64% 1012.6 hPa 0 mm - - -
1788370325 22.22° C 67% 1012.6 hPa 0 mm - - -
1788370025 22.22° C 67% 1012.6 hPa 0 mm - - -
1788369725 22.22° C 68% 1012.6 hPa 0 mm - - -
1788369425 22.22° C 70% 1012.7 hPa 0 mm - - -
1788369125 21.67° C 71% 1012.7 hPa 0 mm - - -

* Rain latest hour (hover to see other rain measurements)
** Current wind speed in m/s (hover to see current wind gust speed)